Tracking 19489 objects as of 23-Jan-2019
HD Live streaming from Space Station
objects crossing your sky now

FENGYUN 1C DEB

Track FENGYUN 1C DEB now!
10-day predictions


NORAD ID: 30417
Int'l Code: 1999-025AEG
Perigee: 811.0 km
Apogee: 908.0 km
Inclination: 98.8 °
Period: 102.0 minutes
Semi major axis: 7230 km
RCS: 0.0259 m2 (small)
Launch date: May 10, 1999
Source: People's Republic of China (PRC)
Launch site: Taiyaun Space Center, China (TSC)

Note: This is SATELLITE DEBRIS
aabbcc
Your satellite tracking list
Your tracking list is empty




NASA's NSSDC Master Catalog

Two Line Element Set (TLE):
1 30417U 99025AEG 19022.53548760  .00000089  00000-0  70325-4 0  9990
2 30417  98.7583  56.1804 0067087  90.6325  67.5746 14.12044318618811
Source of the keplerian elements: AFSPC